Location: Asheville, NC
(35.6000°N, 82.5500°W)
Time: 00:23:51
(UTC-04:00)

Vanguard 1 - Pass Details

Date: 10 March 2018
Orbit: 650 x 3833 km, 34.3° (Epoch: 22 June)

Event Time Altitude Azimuth Distance (km) Brightness Sun altitude
Rises 05:49:38 0° 179° (S) 6,688 14.3 -12.7°
Reaches altitude 10° 05:56:38 10° 161° (SSE) 6,213 14.3 -11.3°
Maximum altitude 06:07:52 17° 128° (SE) 6,152 14.9 -9.0°
Drops below altitude 10° 06:20:04 10° 96° (E) 6,929 16.2 -6.5°
Sets 06:28:26 0° 80° (E) 7,792 16.8 -4.8°
